TimeCDT,TemperatureF,Dew PointF,Humidity,Sea Level PressureIn,VisibilityMPH,Wind Direction,Wind SpeedMPH,Gust SpeedMPH,PrecipitationIn,Events,Conditions,WindDirDegrees,DateUTC
12:53 AM,71.1,55.0,57,30.02,10.0,North,11.5,-,N/A,,Clear,350,2013-05-24 05:53:00
1:53 AM,69.1,55.0,61,30.03,10.0,North,11.5,-,N/A,,Clear,360,2013-05-24 06:53:00
2:53 AM,66.9,55.0,66,30.05,10.0,North,8.1,-,N/A,,Clear,10,2013-05-24 07:53:00
3:53 AM,64.9,55.0,70,30.06,10.0,North,8.1,-,N/A,,Clear,10,2013-05-24 08:53:00
4:53 AM,64.0,53.1,67,30.08,10.0,Variable,5.8,-,N/A,,Clear,0,2013-05-24 09:53:00
5:53 AM,63.0,53.1,70,30.10,10.0,Variable,4.6,-,N/A,,Clear,0,2013-05-24 10:53:00
6:53 AM,64.9,54.0,68,30.12,10.0,Calm,Calm,-,N/A,,Clear,0,2013-05-24 11:53:00
7:53 AM,66.0,54.0,65,30.14,10.0,North,8.1,-,N/A,,Clear,360,2013-05-24 12:53:00
8:53 AM,68.0,55.0,63,30.17,10.0,NNE,11.5,-,N/A,,Clear,20,2013-05-24 13:53:00
9:53 AM,69.1,54.0,58,30.18,10.0,North,8.1,17.3,N/A,,Scattered Clouds,10,2013-05-24 14:53:00
10:53 AM,70.0,52.0,53,30.19,10.0,North,10.4,19.6,N/A,,Scattered Clouds,360,2013-05-24 15:53:00
11:53 AM,73.0,53.1,49,30.19,10.0,NNW,11.5,21.9,N/A,,Scattered Clouds,340,2013-05-24 16:53:00
12:53 PM,73.9,48.0,40,30.18,10.0,North,15.0,20.7,N/A,,Clear,10,2013-05-24 17:53:00
1:53 PM,75.0,46.9,37,30.18,10.0,NNE,10.4,-,N/A,,Clear,20,2013-05-24 18:53:00
2:53 PM,77.0,45.0,32,30.18,10.0,North,9.2,-,N/A,,Clear,360,2013-05-24 19:53:00
3:53 PM,77.0,45.0,32,30.18,10.0,North,11.5,21.9,N/A,,Clear,350,2013-05-24 20:53:00
4:53 PM,77.0,44.1,31,30.19,10.0,North,10.4,-,N/A,,Clear,360,2013-05-24 21:53:00
5:53 PM,75.9,44.1,32,30.18,10.0,North,10.4,-,N/A,,Clear,350,2013-05-24 22:53:00
6:53 PM,73.0,45.0,37,30.19,10.0,North,6.9,-,N/A,,Clear,360,2013-05-24 23:53:00
7:53 PM,69.1,46.9,45,30.19,10.0,North,3.5,-,N/A,,Clear,10,2013-05-25 00:53:00
8:53 PM,63.0,51.1,65,30.20,10.0,NNE,3.5,-,N/A,,Clear,20,2013-05-25 01:53:00
9:53 PM,62.1,51.1,67,30.22,10.0,Calm,Calm,-,N/A,,Clear,0,2013-05-25 02:53:00
10:53 PM,57.0,52.0,83,30.24,10.0,Calm,Calm,-,N/A,,Clear,0,2013-05-25 03:53:00
11:53 PM,57.0,52.0,83,30.23,10.0,East,4.6,-,N/A,,Clear,80,2013-05-25 04:53:00